Regional Weather Roundup
Issued by NWS Raleigh/Durham, NC

Home | Current Version | Previous Version | Text Only | Print | Product List | Glossary On
Versions: 1 2 3 4 5 6 7 8 9 10 11 12 13 14 15 16 17 18 19 20 21 22 23 24 25 26 27 28 29 30 31 32 33 34 35 36 37 38 39 40 41 42 43 44 45 46 47 48
000
ASUS42 KRAH 262310
RWRRAH
NORTH CAROLINA WEATHER ROUNDUP
NATIONAL WEATHER SERVICE RALEIGH NC
600 PM EST FRI DEC 26 2014

NOTE: "FAIR" INDICATES FEW OR NO CLOUDS BELOW 12,000 FEET WITH NO
SIGNIFICANT WEATHER AND/OR OBSTRUCTIONS TO VISIBILITY.

NCZ001-053-055-056-065-067-270000-
WESTERN NORTH CAROLINA

CITY           SKY/WX    TMP DP  RH WIND       PRES   REMARKS
ASHEVILLE      CLEAR     53  19  26 CALM      30.27R
JEFFERSON      PTCLDY    48  23  38 CALM      30.27S
MORGANTON      CLEAR     41  38  91 CALM      30.32S
HICKORY        CLEAR     49  33  54 CALM      30.27R
RUTHERFORDTON  CLEAR     53  34  48 CALM      30.28S
MOUNT AIRY     PTCLDY    48  35  61 CALM      30.30R
BOONE          PTCLDY    45  19  35 W5        30.29R
$$

NCZ021-022-025-041-071-084-088-270000-
CENTRAL NORTH CAROLINA

CITY           SKY/WX    TMP DP  RH WIND       PRES   REMARKS
CHARLOTTE      PTCLDY    51  31  46 CALM      30.29R
GREENSBORO     PTCLDY    51  32  48 NW3       30.27S
WINSTON-SALEM  PTCLDY    49  32  52 CALM      30.29R
RALEIGH-DURHAM PTCLDY    49  36  61 CALM      30.29S
FORT BRAGG     CLEAR     48  42  79 CALM      30.28S
FAYETTEVILLE   CLEAR     50  38  63 CALM      30.28S
BURLINGTON     CLEAR     48  32  53 CALM      30.27S
LAURINBURG     CLEAR     48  40  73 CALM      30.30S
$$

NCZ011-015-027-028-043-044-047-080-103-270000-
NORTHEASTERN NORTH CAROLINA

CITY           SKY/WX    TMP DP  RH WIND       PRES   REMARKS
ROCKY MT-WILSO CLEAR     44  37  76 CALM      30.29F
GREENVILLE     CLEAR     45  37  76 CALM      30.31S
WASHINGTON     CLEAR     45  37  74 CALM      30.32R
ELIZABETH CITY CLEAR     51  35  54 SW5       30.30R
MANTEO         CLEAR     43  37  81 CALM      30.31R
CAPE HATTERAS  CLEAR     43  39  86 W5        30.31R
$$

NCZ078-087-090-091-093-098-101-270000-
SOUTHEASTERN NORTH CAROLINA

CITY           SKY/WX    TMP DP  RH WIND       PRES   REMARKS
LUMBERTON      CLEAR     48  43  82 CALM      30.29S
GOLDSBORO      CLEAR     48  43  85 SE2       30.28S
KINSTON        CLEAR     43  39  87 CALM      30.31S
KENANSVILLE    CLEAR     44  39  81 CALM      30.31S
NEW BERN       CLEAR     46  39  76 CALM      30.31S
CHERRY POINT   CLEAR     47  41  80 SE3       30.31S
BEAUFORT       CLEAR     47  40  76 CALM      30.31R
JACKSONVILLE   CLEAR     49  42  77 CALM      30.29S
WILMINGTON     CLEAR     50  44  80 CALM      30.30R
$$



USA.gov is the U.S. government's official web portal to all federal, state and local government web resources and services.